<?xml version="1.0" encoding="UTF-8" standalone="no" ?>
<gpx xmlns="http://www.topografix.com/GPX/1/1" xmlns:xsi="http://www.w3.org/2001/XMLSchema-instance" xsi:schemaLocation="http://www.topografix.com/GPX/1/1 http://www.topografix.com/GPX/1/1/gpx.xsd" version="1.1" creator="VisuGPX - https://www.visugpx.com">
  <metadata>
    <name>AVIRON FONTAINEBLEAU MORET</name>
    <desc><![CDATA[RANDO JAZZ ACCOMPAGNANTS J1-J2]]></desc>
  </metadata>
  <trk>
    <name><![CDATA[AVIRON FONTAINEBLEAU]]></name>
    <trkseg>
      <trkpt lat="48.44872" lon="2.759">
        <ele>49.5</ele>
        <time>2019-06-29T15:29:24Z</time>
      </trkpt>
      <trkpt lat="48.44638" lon="2.75551">
        <ele>55.7</ele>
        <time>2019-06-29T15:31:35Z</time>
      </trkpt>
      <trkpt lat="48.44519" lon="2.7539">
        <ele>54.3</ele>
        <time>2019-06-29T15:32:39Z</time>
      </trkpt>
      <trkpt lat="48.44262" lon="2.75117">
        <ele>45.8</ele>
        <time>2019-06-29T15:34:45Z</time>
      </trkpt>
      <trkpt lat="48.43811" lon="2.7477">
        <ele>58.3</ele>
        <time>2019-06-29T15:38:08Z</time>
      </trkpt>
      <trkpt lat="48.4327" lon="2.74644">
        <ele>22.6</ele>
        <time>2019-06-29T15:41:47Z</time>
      </trkpt>
      <trkpt lat="48.4299" lon="2.74673">
        <ele>39.5</ele>
        <time>2019-06-29T15:43:39Z</time>
      </trkpt>
      <trkpt lat="48.42964" lon="2.74407">
        <ele>42.9</ele>
        <time>2019-06-29T15:44:51Z</time>
      </trkpt>
      <trkpt lat="48.4296" lon="2.74346">
        <ele>41.7</ele>
        <time>2019-06-29T15:45:07Z</time>
      </trkpt>
      <trkpt lat="48.43004" lon="2.74285">
        <ele>48.1</ele>
        <time>2019-06-29T15:45:31Z</time>
      </trkpt>
      <trkpt lat="48.4304" lon="2.74256">
        <ele>50.6</ele>
        <time>2019-06-29T15:45:47Z</time>
      </trkpt>
      <trkpt lat="48.43088" lon="2.74233">
        <ele>54.9</ele>
        <time>2019-06-29T15:46:08Z</time>
      </trkpt>
      <trkpt lat="48.43134" lon="2.7421">
        <ele>62.1</ele>
        <time>2019-06-29T15:46:27Z</time>
      </trkpt>
      <trkpt lat="48.43038" lon="2.74198">
        <ele>66.7</ele>
        <time>2019-06-29T15:47:06Z</time>
      </trkpt>
      <trkpt lat="48.42923" lon="2.7421">
        <ele>69</ele>
        <time>2019-06-29T15:47:52Z</time>
      </trkpt>
      <trkpt lat="48.42694" lon="2.74174">
        <ele>67.1</ele>
        <time>2019-06-29T15:49:24Z</time>
      </trkpt>
      <trkpt lat="48.42627" lon="2.74033">
        <ele>70.3</ele>
        <time>2019-06-29T15:50:10Z</time>
      </trkpt>
      <trkpt lat="48.42623" lon="2.7388">
        <ele>79.2</ele>
        <time>2019-06-29T15:50:51Z</time>
      </trkpt>
      <trkpt lat="48.42537" lon="2.73634">
        <ele>73.1</ele>
        <time>2019-06-29T15:52:05Z</time>
      </trkpt>
      <trkpt lat="48.42477" lon="2.73561">
        <ele>78.5</ele>
        <time>2019-06-29T15:52:35Z</time>
      </trkpt>
      <trkpt lat="48.4237" lon="2.73431">
        <ele>81.3</ele>
        <time>2019-06-29T15:53:30Z</time>
      </trkpt>
      <trkpt lat="48.42433" lon="2.73335">
        <ele>88</ele>
        <time>2019-06-29T15:54:06Z</time>
      </trkpt>
      <trkpt lat="48.42434" lon="2.73333">
        <ele>88.6</ele>
        <time>2019-06-29T15:54:07Z</time>
      </trkpt>
      <trkpt lat="48.42554" lon="2.73289">
        <ele>91.3</ele>
        <time>2019-06-29T15:54:57Z</time>
      </trkpt>
      <trkpt lat="48.42664" lon="2.73156">
        <ele>99.8</ele>
        <time>2019-06-29T15:55:53Z</time>
      </trkpt>
      <trkpt lat="48.42834" lon="2.73066">
        <ele>105.2</ele>
        <time>2019-06-29T15:57:05Z</time>
      </trkpt>
      <trkpt lat="48.42959" lon="2.73116">
        <ele>100.6</ele>
        <time>2019-06-29T15:57:57Z</time>
      </trkpt>
      <trkpt lat="48.43164" lon="2.73243">
        <ele>112.1</ele>
        <time>2019-06-29T15:59:26Z</time>
      </trkpt>
      <trkpt lat="48.43288" lon="2.73176">
        <ele>107.2</ele>
        <time>2019-06-29T16:00:18Z</time>
      </trkpt>
      <trkpt lat="48.43372" lon="2.72856">
        <ele>113.2</ele>
        <time>2019-06-29T16:01:50Z</time>
      </trkpt>
      <trkpt lat="48.43396" lon="2.72658">
        <ele>127.2</ele>
        <time>2019-06-29T16:02:43Z</time>
      </trkpt>
      <trkpt lat="48.43391" lon="2.72443">
        <ele>120.9</ele>
        <time>2019-06-29T16:03:40Z</time>
      </trkpt>
      <trkpt lat="48.43335" lon="2.7237">
        <ele>125.4</ele>
        <time>2019-06-29T16:04:10Z</time>
      </trkpt>
      <trkpt lat="48.43244" lon="2.72426">
        <ele>129.4</ele>
        <time>2019-06-29T16:04:50Z</time>
      </trkpt>
      <trkpt lat="48.43195" lon="2.72546">
        <ele>118.1</ele>
        <time>2019-06-29T16:05:27Z</time>
      </trkpt>
      <trkpt lat="48.42998" lon="2.72542">
        <ele>133.8</ele>
        <time>2019-06-29T16:06:46Z</time>
      </trkpt>
      <trkpt lat="48.42891" lon="2.72405">
        <ele>126.9</ele>
        <time>2019-06-29T16:07:42Z</time>
      </trkpt>
      <trkpt lat="48.42816" lon="2.7207">
        <ele>140.3</ele>
        <time>2019-06-29T16:09:16Z</time>
      </trkpt>
      <trkpt lat="48.42788" lon="2.72014">
        <ele>139</ele>
        <time>2019-06-29T16:09:35Z</time>
      </trkpt>
      <trkpt lat="48.42762" lon="2.72116">
        <ele>143.3</ele>
        <time>2019-06-29T16:10:04Z</time>
      </trkpt>
      <trkpt lat="48.42753" lon="2.71993">
        <ele>141.1</ele>
        <time>2019-06-29T16:10:36Z</time>
      </trkpt>
      <trkpt lat="48.42659" lon="2.71961">
        <ele>157.8</ele>
        <time>2019-06-29T16:11:15Z</time>
      </trkpt>
      <trkpt lat="48.4261" lon="2.72102">
        <ele>135.1</ele>
        <time>2019-06-29T16:11:57Z</time>
      </trkpt>
      <trkpt lat="48.42554" lon="2.72091">
        <ele>141.3</ele>
        <time>2019-06-29T16:12:20Z</time>
      </trkpt>
      <trkpt lat="48.42482" lon="2.72115">
        <ele>137.4</ele>
        <time>2019-06-29T16:12:49Z</time>
      </trkpt>
      <trkpt lat="48.42445" lon="2.71945">
        <ele>149</ele>
        <time>2019-06-29T16:13:37Z</time>
      </trkpt>
      <trkpt lat="48.42379" lon="2.71926">
        <ele>143.6</ele>
        <time>2019-06-29T16:14:04Z</time>
      </trkpt>
      <trkpt lat="48.42272" lon="2.71865">
        <ele>145.9</ele>
        <time>2019-06-29T16:14:50Z</time>
      </trkpt>
      <trkpt lat="48.42259" lon="2.71912">
        <ele>144.2</ele>
        <time>2019-06-29T16:15:03Z</time>
      </trkpt>
      <trkpt lat="48.42145" lon="2.71829">
        <ele>145.3</ele>
        <time>2019-06-29T16:15:54Z</time>
      </trkpt>
      <trkpt lat="48.42142" lon="2.71813">
        <ele>145.6</ele>
        <time>2019-06-29T16:15:58Z</time>
      </trkpt>
      <trkpt lat="48.42083" lon="2.71833">
        <ele>137.3</ele>
        <time>2019-06-29T16:16:23Z</time>
      </trkpt>
      <trkpt lat="48.42084" lon="2.71825">
        <ele>137.4</ele>
        <time>2019-06-29T16:16:25Z</time>
      </trkpt>
      <trkpt lat="48.42141" lon="2.71634">
        <ele>153.2</ele>
        <time>2019-06-29T16:17:21Z</time>
      </trkpt>
      <trkpt lat="48.42175" lon="2.71548">
        <ele>149.4</ele>
        <time>2019-06-29T16:17:47Z</time>
      </trkpt>
      <trkpt lat="48.42171" lon="2.71557">
        <ele>149.7</ele>
        <time>2019-06-29T16:17:50Z</time>
      </trkpt>
      <trkpt lat="48.41981" lon="2.71483">
        <ele>126.9</ele>
        <time>2019-06-29T16:19:09Z</time>
      </trkpt>
      <trkpt lat="48.42027" lon="2.71401">
        <ele>131.1</ele>
        <time>2019-06-29T16:19:37Z</time>
      </trkpt>
      <trkpt lat="48.4212" lon="2.71335">
        <ele>138.4</ele>
        <time>2019-06-29T16:20:19Z</time>
      </trkpt>
      <trkpt lat="48.42168" lon="2.71319">
        <ele>140.8</ele>
        <time>2019-06-29T16:20:38Z</time>
      </trkpt>
      <trkpt lat="48.42267" lon="2.71287">
        <ele>139</ele>
        <time>2019-06-29T16:21:19Z</time>
      </trkpt>
      <trkpt lat="48.42445" lon="2.7108">
        <ele>141.1</ele>
        <time>2019-06-29T16:22:49Z</time>
      </trkpt>
      <trkpt lat="48.4255" lon="2.71063">
        <ele>157.3</ele>
        <time>2019-06-29T16:23:31Z</time>
      </trkpt>
      <trkpt lat="48.42536" lon="2.70999">
        <ele>150.4</ele>
        <time>2019-06-29T16:23:49Z</time>
      </trkpt>
      <trkpt lat="48.42538" lon="2.70996">
        <ele>149.8</ele>
        <time>2019-06-29T16:23:50Z</time>
      </trkpt>
      <trkpt lat="48.42447" lon="2.71031">
        <ele>136.7</ele>
        <time>2019-06-29T16:24:28Z</time>
      </trkpt>
      <trkpt lat="48.42538" lon="2.70878">
        <ele>139.2</ele>
        <time>2019-06-29T16:25:22Z</time>
      </trkpt>
      <trkpt lat="48.4257" lon="2.70819">
        <ele>137.1</ele>
        <time>2019-06-29T16:25:42Z</time>
      </trkpt>
      <trkpt lat="48.42719" lon="2.70738">
        <ele>155</ele>
        <time>2019-06-29T16:26:46Z</time>
      </trkpt>
      <trkpt lat="48.42795" lon="2.70775">
        <ele>153.8</ele>
        <time>2019-06-29T16:27:18Z</time>
      </trkpt>
      <trkpt lat="48.42937" lon="2.70782">
        <ele>143</ele>
        <time>2019-06-29T16:28:14Z</time>
      </trkpt>
      <trkpt lat="48.43017" lon="2.70705">
        <ele>138.6</ele>
        <time>2019-06-29T16:28:53Z</time>
      </trkpt>
      <trkpt lat="48.43035" lon="2.7068">
        <ele>142.9</ele>
        <time>2019-06-29T16:29:02Z</time>
      </trkpt>
      <trkpt lat="48.43129" lon="2.70709">
        <ele>143.7</ele>
        <time>2019-06-29T16:29:41Z</time>
      </trkpt>
      <trkpt lat="48.4323" lon="2.70631">
        <ele>144.8</ele>
        <time>2019-06-29T16:30:26Z</time>
      </trkpt>
      <trkpt lat="48.43379" lon="2.70573">
        <ele>140.8</ele>
        <time>2019-06-29T16:31:28Z</time>
      </trkpt>
      <trkpt lat="48.43379" lon="2.70573">
        <ele>140.8</ele>
        <time>2019-06-29T16:31:28Z</time>
      </trkpt>
      <trkpt lat="48.43428" lon="2.70627">
        <ele>133.2</ele>
        <time>2019-06-29T16:31:52Z</time>
      </trkpt>
      <trkpt lat="48.43486" lon="2.7101">
        <ele>127.9</ele>
        <time>2019-06-29T16:33:36Z</time>
      </trkpt>
      <trkpt lat="48.43524" lon="2.71077">
        <ele>119.2</ele>
        <time>2019-06-29T16:34:00Z</time>
      </trkpt>
      <trkpt lat="48.4357" lon="2.71055">
        <ele>111.5</ele>
        <time>2019-06-29T16:34:19Z</time>
      </trkpt>
      <trkpt lat="48.43629" lon="2.70989">
        <ele>123.2</ele>
        <time>2019-06-29T16:34:49Z</time>
      </trkpt>
      <trkpt lat="48.43693" lon="2.70855">
        <ele>128.3</ele>
        <time>2019-06-29T16:35:32Z</time>
      </trkpt>
      <trkpt lat="48.43774" lon="2.70813">
        <ele>132.8</ele>
        <time>2019-06-29T16:36:07Z</time>
      </trkpt>
      <trkpt lat="48.43711" lon="2.70731">
        <ele>136.5</ele>
        <time>2019-06-29T16:36:40Z</time>
      </trkpt>
      <trkpt lat="48.43679" lon="2.70654">
        <ele>140.1</ele>
        <time>2019-06-29T16:37:04Z</time>
      </trkpt>
      <trkpt lat="48.43681" lon="2.7058">
        <ele>134</ele>
        <time>2019-06-29T16:37:24Z</time>
      </trkpt>
      <trkpt lat="48.43784" lon="2.70569">
        <ele>130.2</ele>
        <time>2019-06-29T16:38:05Z</time>
      </trkpt>
      <trkpt lat="48.43807" lon="2.70589">
        <ele>125.8</ele>
        <time>2019-06-29T16:38:16Z</time>
      </trkpt>
      <trkpt lat="48.43788" lon="2.70566">
        <ele>129.6</ele>
        <time>2019-06-29T16:38:26Z</time>
      </trkpt>
      <trkpt lat="48.43709" lon="2.70432">
        <ele>134.9</ele>
        <time>2019-06-29T16:39:13Z</time>
      </trkpt>
      <trkpt lat="48.43697" lon="2.70397">
        <ele>132.7</ele>
        <time>2019-06-29T16:39:24Z</time>
      </trkpt>
      <trkpt lat="48.43697" lon="2.70397">
        <ele>132.7</ele>
        <time>2019-06-29T16:39:24Z</time>
      </trkpt>
      <trkpt lat="48.43702" lon="2.70365">
        <ele>131.8</ele>
        <time>2019-06-29T16:39:33Z</time>
      </trkpt>
      <trkpt lat="48.43744" lon="2.70351">
        <ele>126.7</ele>
        <time>2019-06-29T16:39:50Z</time>
      </trkpt>
      <trkpt lat="48.43716" lon="2.70298">
        <ele>127.3</ele>
        <time>2019-06-29T16:40:08Z</time>
      </trkpt>
      <trkpt lat="48.43714" lon="2.70235">
        <ele>120.6</ele>
        <time>2019-06-29T16:40:25Z</time>
      </trkpt>
      <trkpt lat="48.43613" lon="2.70436">
        <ele>121.5</ele>
        <time>2019-06-29T16:41:31Z</time>
      </trkpt>
      <trkpt lat="48.43557" lon="2.70569">
        <ele>128.3</ele>
        <time>2019-06-29T16:42:13Z</time>
      </trkpt>
      <trkpt lat="48.43506" lon="2.70495">
        <ele>125.6</ele>
        <time>2019-06-29T16:42:42Z</time>
      </trkpt>
      <trkpt lat="48.43492" lon="2.70437">
        <ele>127.5</ele>
        <time>2019-06-29T16:42:58Z</time>
      </trkpt>
      <trkpt lat="48.43459" lon="2.70425">
        <ele>135.1</ele>
        <time>2019-06-29T16:43:12Z</time>
      </trkpt>
      <trkpt lat="48.43274" lon="2.70383">
        <ele>147.9</ele>
        <time>2019-06-29T16:44:27Z</time>
      </trkpt>
      <trkpt lat="48.43157" lon="2.70393">
        <ele>149.1</ele>
        <time>2019-06-29T16:45:14Z</time>
      </trkpt>
      <trkpt lat="48.42907" lon="2.70422">
        <ele>154.9</ele>
        <time>2019-06-29T16:46:54Z</time>
      </trkpt>
      <trkpt lat="48.42924" lon="2.70228">
        <ele>153.8</ele>
        <time>2019-06-29T16:47:46Z</time>
      </trkpt>
      <trkpt lat="48.43017" lon="2.70147">
        <ele>149.5</ele>
        <time>2019-06-29T16:48:29Z</time>
      </trkpt>
      <trkpt lat="48.43043" lon="2.69492">
        <ele>140.7</ele>
        <time>2019-06-29T16:51:23Z</time>
      </trkpt>
      <trkpt lat="48.43018" lon="2.69451">
        <ele>141.9</ele>
        <time>2019-06-29T16:51:38Z</time>
      </trkpt>
      <trkpt lat="48.42996" lon="2.69372">
        <ele>143.7</ele>
        <time>2019-06-29T16:52:01Z</time>
      </trkpt>
      <trkpt lat="48.42991" lon="2.69301">
        <ele>139.1</ele>
        <time>2019-06-29T16:52:20Z</time>
      </trkpt>
      <trkpt lat="48.4287" lon="2.69252">
        <ele>149.2</ele>
        <time>2019-06-29T16:53:10Z</time>
      </trkpt>
      <trkpt lat="48.42757" lon="2.69081">
        <ele>153.3</ele>
        <time>2019-06-29T16:54:14Z</time>
      </trkpt>
      <trkpt lat="48.42882" lon="2.68907">
        <ele>142.8</ele>
        <time>2019-06-29T16:55:22Z</time>
      </trkpt>
      <trkpt lat="48.4287" lon="2.68812">
        <ele>147.9</ele>
        <time>2019-06-29T16:55:48Z</time>
      </trkpt>
      <trkpt lat="48.4279" lon="2.6871">
        <ele>140.2</ele>
        <time>2019-06-29T16:56:30Z</time>
      </trkpt>
      <trkpt lat="48.42811" lon="2.68607">
        <ele>142.3</ele>
        <time>2019-06-29T16:56:58Z</time>
      </trkpt>
      <trkpt lat="48.42919" lon="2.68537">
        <ele>136.1</ele>
        <time>2019-06-29T16:57:45Z</time>
      </trkpt>
      <trkpt lat="48.43079" lon="2.68301">
        <ele>129</ele>
        <time>2019-06-29T16:59:15Z</time>
      </trkpt>
      <trkpt lat="48.42991" lon="2.68237">
        <ele>135.5</ele>
        <time>2019-06-29T16:59:53Z</time>
      </trkpt>
      <trkpt lat="48.42945" lon="2.68135">
        <ele>122.7</ele>
        <time>2019-06-29T17:00:26Z</time>
      </trkpt>
      <trkpt lat="48.42849" lon="2.6822">
        <ele>145.9</ele>
        <time>2019-06-29T17:01:11Z</time>
      </trkpt>
      <trkpt lat="48.42636" lon="2.67977">
        <ele>154.7</ele>
        <time>2019-06-29T17:02:58Z</time>
      </trkpt>
      <trkpt lat="48.4269" lon="2.67903">
        <ele>152.3</ele>
        <time>2019-06-29T17:03:27Z</time>
      </trkpt>
      <trkpt lat="48.42634" lon="2.67854">
        <ele>151.6</ele>
        <time>2019-06-29T17:03:53Z</time>
      </trkpt>
      <trkpt lat="48.42659" lon="2.6779">
        <ele>155.7</ele>
        <time>2019-06-29T17:04:13Z</time>
      </trkpt>
      <trkpt lat="48.42685" lon="2.67741">
        <ele>156.8</ele>
        <time>2019-06-29T17:04:29Z</time>
      </trkpt>
      <trkpt lat="48.42615" lon="2.67706">
        <ele>158.3</ele>
        <time>2019-06-29T17:04:59Z</time>
      </trkpt>
      <trkpt lat="48.42803" lon="2.66626">
        <ele>140.1</ele>
        <time>2019-06-29T17:09:55Z</time>
      </trkpt>
      <trkpt lat="48.42821" lon="2.66642">
        <ele>142.6</ele>
        <time>2019-06-29T17:10:04Z</time>
      </trkpt>
      <trkpt lat="48.43056" lon="2.66505">
        <ele>151.3</ele>
        <time>2019-06-29T17:11:45Z</time>
      </trkpt>
      <trkpt lat="48.43066" lon="2.66578">
        <ele>149.9</ele>
        <time>2019-06-29T17:12:04Z</time>
      </trkpt>
      <trkpt lat="48.43356" lon="2.6661">
        <ele>154.5</ele>
        <time>2019-06-29T17:14:01Z</time>
      </trkpt>
      <trkpt lat="48.43529" lon="2.66638">
        <ele>148.4</ele>
        <time>2019-06-29T17:15:10Z</time>
      </trkpt>
      <trkpt lat="48.43613" lon="2.66716">
        <ele>148.2</ele>
        <time>2019-06-29T17:15:50Z</time>
      </trkpt>
      <trkpt lat="48.43737" lon="2.66699">
        <ele>148</ele>
        <time>2019-06-29T17:16:40Z</time>
      </trkpt>
      <trkpt lat="48.43922" lon="2.66793">
        <ele>153.9</ele>
        <time>2019-06-29T17:17:58Z</time>
      </trkpt>
      <trkpt lat="48.44122" lon="2.66888">
        <ele>146.3</ele>
        <time>2019-06-29T17:19:22Z</time>
      </trkpt>
      <trkpt lat="48.44144" lon="2.66892">
        <ele>141.2</ele>
        <time>2019-06-29T17:19:31Z</time>
      </trkpt>
      <trkpt lat="48.4416" lon="2.66851">
        <ele>146</ele>
        <time>2019-06-29T17:19:43Z</time>
      </trkpt>
      <trkpt lat="48.44207" lon="2.66984">
        <ele>138.9</ele>
        <time>2019-06-29T17:20:23Z</time>
      </trkpt>
      <trkpt lat="48.4429" lon="2.67017">
        <ele>139.1</ele>
        <time>2019-06-29T17:20:58Z</time>
      </trkpt>
      <trkpt lat="48.44409" lon="2.66961">
        <ele>136.2</ele>
        <time>2019-06-29T17:21:48Z</time>
      </trkpt>
      <trkpt lat="48.44566" lon="2.67253">
        <ele>155.7</ele>
        <time>2019-06-29T17:23:27Z</time>
      </trkpt>
      <trkpt lat="48.44647" lon="2.67417">
        <ele>156</ele>
        <time>2019-06-29T17:24:22Z</time>
      </trkpt>
      <trkpt lat="48.44652" lon="2.67481">
        <ele>145.1</ele>
        <time>2019-06-29T17:24:39Z</time>
      </trkpt>
      <trkpt lat="48.44659" lon="2.6764">
        <ele>133.8</ele>
        <time>2019-06-29T17:25:21Z</time>
      </trkpt>
      <trkpt lat="48.44706" lon="2.67743">
        <ele>121</ele>
        <time>2019-06-29T17:25:54Z</time>
      </trkpt>
      <trkpt lat="48.45001" lon="2.6806">
        <ele>110.1</ele>
        <time>2019-06-29T17:28:19Z</time>
      </trkpt>
      <trkpt lat="48.45183" lon="2.68278">
        <ele>100.1</ele>
        <time>2019-06-29T17:29:52Z</time>
      </trkpt>
      <trkpt lat="48.45334" lon="2.68472">
        <ele>88.4</ele>
        <time>2019-06-29T17:31:12Z</time>
      </trkpt>
      <trkpt lat="48.45368" lon="2.68752">
        <ele>110.5</ele>
        <time>2019-06-29T17:32:27Z</time>
      </trkpt>
      <trkpt lat="48.45397" lon="2.69051">
        <ele>98.7</ele>
        <time>2019-06-29T17:33:47Z</time>
      </trkpt>
      <trkpt lat="48.45532" lon="2.69106">
        <ele>103.1</ele>
        <time>2019-06-29T17:34:43Z</time>
      </trkpt>
      <trkpt lat="48.45673" lon="2.68966">
        <ele>104.4</ele>
        <time>2019-06-29T17:35:51Z</time>
      </trkpt>
      <trkpt lat="48.45732" lon="2.69007">
        <ele>92.1</ele>
        <time>2019-06-29T17:36:17Z</time>
      </trkpt>
      <trkpt lat="48.4578" lon="2.69068">
        <ele>85.1</ele>
        <time>2019-06-29T17:36:42Z</time>
      </trkpt>
      <trkpt lat="48.45793" lon="2.69165">
        <ele>89.7</ele>
        <time>2019-06-29T17:37:08Z</time>
      </trkpt>
      <trkpt lat="48.45769" lon="2.69262">
        <ele>109.5</ele>
        <time>2019-06-29T17:37:36Z</time>
      </trkpt>
      <trkpt lat="48.45788" lon="2.69415">
        <ele>100.2</ele>
        <time>2019-06-29T17:38:17Z</time>
      </trkpt>
      <trkpt lat="48.45838" lon="2.69558">
        <ele>92.6</ele>
        <time>2019-06-29T17:39:00Z</time>
      </trkpt>
      <trkpt lat="48.45883" lon="2.69594">
        <ele>93.8</ele>
        <time>2019-06-29T17:39:20Z</time>
      </trkpt>
      <trkpt lat="48.45865" lon="2.69862">
        <ele>76.9</ele>
        <time>2019-06-29T17:40:32Z</time>
      </trkpt>
      <trkpt lat="48.45818" lon="2.70012">
        <ele>86</ele>
        <time>2019-06-29T17:41:16Z</time>
      </trkpt>
      <trkpt lat="48.46062" lon="2.70837">
        <ele>79.8</ele>
        <time>2019-06-29T17:45:15Z</time>
      </trkpt>
      <trkpt lat="48.45964" lon="2.71139">
        <ele>100.7</ele>
        <time>2019-06-29T17:46:45Z</time>
      </trkpt>
      <trkpt lat="48.46411" lon="2.71979">
        <ele>95.8</ele>
        <time>2019-06-29T17:51:31Z</time>
      </trkpt>
      <trkpt lat="48.46619" lon="2.72362">
        <ele>92.1</ele>
        <time>2019-06-29T17:53:42Z</time>
      </trkpt>
      <trkpt lat="48.46904" lon="2.72296">
        <ele>65.8</ele>
        <time>2019-06-29T17:55:38Z</time>
      </trkpt>
      <trkpt lat="48.47022" lon="2.72046">
        <ele>74.5</ele>
        <time>2019-06-29T17:56:59Z</time>
      </trkpt>
      <trkpt lat="48.47459" lon="2.71836">
        <ele>67.2</ele>
        <time>2019-06-29T18:00:03Z</time>
      </trkpt>
      <trkpt lat="48.47508" lon="2.71795">
        <ele>67.1</ele>
        <time>2019-06-29T18:00:25Z</time>
      </trkpt>
      <trkpt lat="48.47805" lon="2.71992">
        <ele>66.9</ele>
        <time>2019-06-29T18:02:35Z</time>
      </trkpt>
      <trkpt lat="48.47921" lon="2.72028">
        <ele>58.2</ele>
        <time>2019-06-29T18:03:22Z</time>
      </trkpt>
      <trkpt lat="48.47979" lon="2.72152">
        <ele>62.9</ele>
        <time>2019-06-29T18:04:03Z</time>
      </trkpt>
      <trkpt lat="48.48055" lon="2.72175">
        <ele>55.4</ele>
        <time>2019-06-29T18:04:34Z</time>
      </trkpt>
      <trkpt lat="48.48025" lon="2.71559">
        <ele>50.4</ele>
        <time>2019-06-29T18:07:17Z</time>
      </trkpt>
      <trkpt lat="48.48172" lon="2.71478">
        <ele>42.4</ele>
        <time>2019-06-29T18:08:20Z</time>
      </trkpt>
      <trkpt lat="48.48096" lon="2.70944">
        <ele>42.1</ele>
        <time>2019-06-29T18:10:45Z</time>
      </trkpt>
      <trkpt lat="48.48164" lon="2.70922">
        <ele>46.2</ele>
        <time>2019-06-29T18:11:13Z</time>
      </trkpt>
      <trkpt lat="48.48173" lon="2.70635">
        <ele>40.8</ele>
        <time>2019-06-29T18:12:29Z</time>
      </trkpt>
      <trkpt lat="48.4829" lon="2.71116">
        <ele>48.1</ele>
        <time>2019-06-29T18:14:45Z</time>
      </trkpt>
      <trkpt lat="48.48451" lon="2.71583">
        <ele>49</ele>
        <time>2019-06-29T18:17:05Z</time>
      </trkpt>
      <trkpt lat="48.48529" lon="2.7216">
        <ele>41</ele>
        <time>2019-06-29T18:19:41Z</time>
      </trkpt>
      <trkpt lat="48.48594" lon="2.72883">
        <ele>49.9</ele>
        <time>2019-06-29T18:22:55Z</time>
      </trkpt>
      <trkpt lat="48.48587" lon="2.73235">
        <ele>41.4</ele>
        <time>2019-06-29T18:24:28Z</time>
      </trkpt>
      <trkpt lat="48.48607" lon="2.73665">
        <ele>43.7</ele>
        <time>2019-06-29T18:26:22Z</time>
      </trkpt>
      <trkpt lat="48.48633" lon="2.73998">
        <ele>43.2</ele>
        <time>2019-06-29T18:27:51Z</time>
      </trkpt>
      <trkpt lat="48.48633" lon="2.74301">
        <ele>42</ele>
        <time>2019-06-29T18:29:12Z</time>
      </trkpt>
      <trkpt lat="48.48613" lon="2.74809">
        <ele>38.7</ele>
        <time>2019-06-29T18:31:27Z</time>
      </trkpt>
      <trkpt lat="48.48522" lon="2.75181">
        <ele>47.5</ele>
        <time>2019-06-29T18:33:12Z</time>
      </trkpt>
      <trkpt lat="48.48354" lon="2.75689">
        <ele>44.6</ele>
        <time>2019-06-29T18:35:43Z</time>
      </trkpt>
      <trkpt lat="48.48062" lon="2.76178">
        <ele>39.6</ele>
        <time>2019-06-29T18:38:37Z</time>
      </trkpt>
      <trkpt lat="48.47641" lon="2.76598">
        <ele>48.4</ele>
        <time>2019-06-29T18:41:59Z</time>
      </trkpt>
      <trkpt lat="48.47337" lon="2.76833">
        <ele>47.4</ele>
        <time>2019-06-29T18:44:16Z</time>
      </trkpt>
      <trkpt lat="48.46867" lon="2.77053">
        <ele>40.5</ele>
        <time>2019-06-29T18:47:33Z</time>
      </trkpt>
      <trkpt lat="48.46231" lon="2.77004">
        <ele>36.5</ele>
        <time>2019-06-29T18:51:48Z</time>
      </trkpt>
      <trkpt lat="48.45797" lon="2.76896">
        <ele>38.5</ele>
        <time>2019-06-29T18:54:44Z</time>
      </trkpt>
      <trkpt lat="48.45531" lon="2.76603">
        <ele>41.9</ele>
        <time>2019-06-29T18:56:56Z</time>
      </trkpt>
      <trkpt lat="48.45252" lon="2.76016">
        <ele>55.6</ele>
        <time>2019-06-29T19:00:07Z</time>
      </trkpt>
      <trkpt lat="48.45074" lon="2.75801">
        <ele>47.4</ele>
        <time>2019-06-29T19:01:39Z</time>
      </trkpt>
      <trkpt lat="48.44939" lon="2.75668">
        <ele>55.5</ele>
        <time>2019-06-29T19:02:43Z</time>
      </trkpt>
      <trkpt lat="48.44718" lon="2.75304">
        <ele>44.4</ele>
        <time>2019-06-29T19:04:54Z</time>
      </trkpt>
      <trkpt lat="48.44625" lon="2.75149">
        <ele>51</ele>
        <time>2019-06-29T19:05:50Z</time>
      </trkpt>
      <trkpt lat="48.44513" lon="2.75036">
        <ele>60.8</ele>
        <time>2019-06-29T19:06:44Z</time>
      </trkpt>
      <trkpt lat="48.44173" lon="2.74763">
        <ele>80.8</ele>
        <time>2019-06-29T19:09:18Z</time>
      </trkpt>
      <trkpt lat="48.43819" lon="2.7455">
        <ele>57.6</ele>
        <time>2019-06-29T19:11:51Z</time>
      </trkpt>
      <trkpt lat="48.43614" lon="2.74458">
        <ele>52.8</ele>
        <time>2019-06-29T19:13:16Z</time>
      </trkpt>
      <trkpt lat="48.43255" lon="2.7441">
        <ele>33.3</ele>
        <time>2019-06-29T19:15:41Z</time>
      </trkpt>
      <trkpt lat="48.43055" lon="2.74419">
        <ele>45.4</ele>
        <time>2019-06-29T19:17:01Z</time>
      </trkpt>
      <trkpt lat="48.4299" lon="2.74428">
        <ele>47.5</ele>
        <time>2019-06-29T19:17:27Z</time>
      </trkpt>
      <trkpt lat="48.43013" lon="2.74665">
        <ele>37.4</ele>
        <time>2019-06-29T19:18:30Z</time>
      </trkpt>
      <trkpt lat="48.43533" lon="2.74731">
        <ele>40.3</ele>
        <time>2019-06-29T19:21:59Z</time>
      </trkpt>
      <trkpt lat="48.4382" lon="2.74826">
        <ele>53.5</ele>
        <time>2019-06-29T19:23:57Z</time>
      </trkpt>
      <trkpt lat="48.44234" lon="2.75117">
        <ele>49.3</ele>
        <time>2019-06-29T19:27:00Z</time>
      </trkpt>
      <trkpt lat="48.44583" lon="2.75442">
        <ele>49</ele>
        <time>2019-06-29T19:29:44Z</time>
      </trkpt>
      <trkpt lat="48.44935" lon="2.76004">
        <ele>46.9</ele>
        <time>2019-06-29T19:33:09Z</time>
      </trkpt>
    </trkseg>
  </trk>
  <trk>
    <name><![CDATA[AVIRON MORET]]></name>
    <trkseg>
      <trkpt lat="48.45092" lon="2.76327">
        <ele>53.8</ele>
        <time>2019-06-29T16:16:53Z</time>
      </trkpt>
      <trkpt lat="48.44516" lon="2.75432">
        <ele>46.9</ele>
        <time>2019-06-29T16:22:23Z</time>
      </trkpt>
      <trkpt lat="48.44484" lon="2.75438">
        <ele>40.4</ele>
        <time>2019-06-29T16:22:36Z</time>
      </trkpt>
      <trkpt lat="48.44175" lon="2.75069">
        <ele>49.2</ele>
        <time>2019-06-29T16:25:14Z</time>
      </trkpt>
      <trkpt lat="48.43592" lon="2.74744">
        <ele>50.6</ele>
        <time>2019-06-29T16:29:23Z</time>
      </trkpt>
      <trkpt lat="48.43002" lon="2.74727">
        <ele>39.8</ele>
        <time>2019-06-29T16:33:19Z</time>
      </trkpt>
      <trkpt lat="48.42948" lon="2.7424">
        <ele>59.1</ele>
        <time>2019-06-29T16:35:31Z</time>
      </trkpt>
      <trkpt lat="48.42438" lon="2.74357">
        <ele>56.1</ele>
        <time>2019-06-29T16:38:57Z</time>
      </trkpt>
      <trkpt lat="48.4142" lon="2.74684">
        <ele>75.9</ele>
        <time>2019-06-29T16:45:54Z</time>
      </trkpt>
      <trkpt lat="48.41154" lon="2.74981">
        <ele>77.2</ele>
        <time>2019-06-29T16:48:06Z</time>
      </trkpt>
      <trkpt lat="48.40996" lon="2.74842">
        <ele>97.5</ele>
        <time>2019-06-29T16:49:19Z</time>
      </trkpt>
      <trkpt lat="48.40871" lon="2.74743">
        <ele>98.8</ele>
        <time>2019-06-29T16:50:16Z</time>
      </trkpt>
      <trkpt lat="48.40694" lon="2.74392">
        <ele>104.3</ele>
        <time>2019-06-29T16:52:13Z</time>
      </trkpt>
      <trkpt lat="48.40677" lon="2.74337">
        <ele>104.4</ele>
        <time>2019-06-29T16:52:29Z</time>
      </trkpt>
      <trkpt lat="48.40625" lon="2.74312">
        <ele>103.7</ele>
        <time>2019-06-29T16:52:51Z</time>
      </trkpt>
      <trkpt lat="48.40549" lon="2.74139">
        <ele>96.8</ele>
        <time>2019-06-29T16:53:46Z</time>
      </trkpt>
      <trkpt lat="48.40442" lon="2.73797">
        <ele>100.1</ele>
        <time>2019-06-29T16:55:27Z</time>
      </trkpt>
      <trkpt lat="48.40254" lon="2.73407">
        <ele>99.6</ele>
        <time>2019-06-29T16:57:35Z</time>
      </trkpt>
      <trkpt lat="48.40093" lon="2.73427">
        <ele>95.5</ele>
        <time>2019-06-29T16:58:39Z</time>
      </trkpt>
      <trkpt lat="48.39978" lon="2.73417">
        <ele>85.7</ele>
        <time>2019-06-29T16:59:26Z</time>
      </trkpt>
      <trkpt lat="48.39965" lon="2.73412">
        <ele>87.8</ele>
        <time>2019-06-29T16:59:31Z</time>
      </trkpt>
      <trkpt lat="48.39968" lon="2.7357">
        <ele>94.7</ele>
        <time>2019-06-29T17:00:13Z</time>
      </trkpt>
      <trkpt lat="48.39873" lon="2.73565">
        <ele>81.6</ele>
        <time>2019-06-29T17:00:51Z</time>
      </trkpt>
      <trkpt lat="48.3983" lon="2.73536">
        <ele>78.2</ele>
        <time>2019-06-29T17:01:10Z</time>
      </trkpt>
      <trkpt lat="48.39583" lon="2.74006">
        <ele>82</ele>
        <time>2019-06-29T17:03:49Z</time>
      </trkpt>
      <trkpt lat="48.39232" lon="2.73397">
        <ele>97.3</ele>
        <time>2019-06-29T17:07:24Z</time>
      </trkpt>
      <trkpt lat="48.39139" lon="2.73468">
        <ele>97.5</ele>
        <time>2019-06-29T17:09:16Z</time>
      </trkpt>
      <trkpt lat="48.39042" lon="2.73584">
        <ele>88</ele>
        <time>2019-06-29T17:12:21Z</time>
      </trkpt>
      <trkpt lat="48.38968" lon="2.73531">
        <ele>89.7</ele>
        <time>2019-06-29T16:41:40Z</time>
      </trkpt>
      <trkpt lat="48.38598" lon="2.73825">
        <ele>84</ele>
        <time>2019-06-29T17:16:02Z</time>
      </trkpt>
      <trkpt lat="48.38189" lon="2.73575">
        <ele>78.2</ele>
        <time>2019-06-29T16:16:54Z</time>
      </trkpt>
      <trkpt lat="48.38162" lon="2.73548">
        <ele>78.9</ele>
        <time>2019-06-29T17:17:57Z</time>
      </trkpt>
      <trkpt lat="48.38086" lon="2.73486">
        <ele>92.7</ele>
        <time>2019-06-29T16:17:12Z</time>
      </trkpt>
      <trkpt lat="48.38017" lon="2.73446">
        <ele>89.4</ele>
        <time>2019-06-29T11:45:16Z</time>
      </trkpt>
      <trkpt lat="48.37991" lon="2.73739">
        <ele>81.5</ele>
        <time>2019-06-28T19:59:50Z</time>
      </trkpt>
      <trkpt lat="48.37973" lon="2.74165">
        <ele>77.7</ele>
        <time>2019-06-26T09:27:35Z</time>
      </trkpt>
      <trkpt lat="48.37916" lon="2.74682">
        <ele>89.1</ele>
        <time>2019-06-16T21:43:27Z</time>
      </trkpt>
      <trkpt lat="48.37895" lon="2.74904">
        <ele>106.4</ele>
        <time>2019-05-08T06:20:22Z</time>
      </trkpt>
      <trkpt lat="48.37799" lon="2.75158">
        <ele>94</ele>
        <time>2018-11-21T09:10:03Z</time>
      </trkpt>
      <trkpt lat="48.37811" lon="2.75399">
        <ele>98.9</ele>
        <time>2016-10-31T22:53:20Z</time>
      </trkpt>
      <trkpt lat="48.37732" lon="2.75666">
        <ele>95.9</ele>
        <time>2007-07-15T08:32:45Z</time>
      </trkpt>
      <trkpt lat="48.37681" lon="2.75848">
        <ele>99</ele>
        <time>2019-06-29T18:16:27Z</time>
      </trkpt>
      <trkpt lat="48.37681" lon="2.76065">
        <ele>96.9</ele>
        <time>2019-06-29T17:01:55Z</time>
      </trkpt>
      <trkpt lat="48.37648" lon="2.76351">
        <ele>90.7</ele>
        <time>2019-06-29T18:17:41Z</time>
      </trkpt>
      <trkpt lat="48.37582" lon="2.76524">
        <ele>95</ele>
        <time>2019-06-29T18:20:31Z</time>
      </trkpt>
      <trkpt lat="48.37552" lon="2.76759">
        <ele>98.1</ele>
        <time>2019-06-29T18:21:29Z</time>
      </trkpt>
      <trkpt lat="48.36985" lon="2.76714">
        <ele>92.2</ele>
        <time>2019-06-29T18:24:24Z</time>
      </trkpt>
      <trkpt lat="48.36729" lon="2.76682">
        <ele>96.9</ele>
        <time>2019-06-29T18:25:26Z</time>
      </trkpt>
      <trkpt lat="48.36355" lon="2.76646">
        <ele>93.9</ele>
        <time>2019-06-29T18:26:57Z</time>
      </trkpt>
      <trkpt lat="48.35842" lon="2.76617">
        <ele>81.4</ele>
        <time>2019-06-29T18:30:47Z</time>
      </trkpt>
      <trkpt lat="48.3549" lon="2.77075">
        <ele>92.3</ele>
        <time>2019-06-29T18:33:53Z</time>
      </trkpt>
      <trkpt lat="48.35388" lon="2.77266">
        <ele>91.1</ele>
        <time>2019-06-29T18:36:48Z</time>
      </trkpt>
      <trkpt lat="48.35254" lon="2.77293">
        <ele>93</ele>
        <time>2019-06-29T18:40:15Z</time>
      </trkpt>
      <trkpt lat="48.35032" lon="2.77449">
        <ele>94.1</ele>
        <time>2019-06-29T18:45:44Z</time>
      </trkpt>
      <trkpt lat="48.34917" lon="2.77435">
        <ele>89.8</ele>
        <time>2019-06-29T18:50:44Z</time>
      </trkpt>
      <trkpt lat="48.34715" lon="2.77435">
        <ele>79.3</ele>
        <time>2019-06-29T18:54:28Z</time>
      </trkpt>
      <trkpt lat="48.34641" lon="2.77449">
        <ele>74</ele>
        <time>2019-06-29T18:56:41Z</time>
      </trkpt>
      <trkpt lat="48.34464" lon="2.77235">
        <ele>54.4</ele>
        <time>2019-06-29T18:57:55Z</time>
      </trkpt>
      <trkpt lat="48.34211" lon="2.77435">
        <ele>50.7</ele>
        <time>2019-06-29T19:00:37Z</time>
      </trkpt>
      <trkpt lat="48.34067" lon="2.7747">
        <ele>41</ele>
        <time>2019-06-29T19:02:44Z</time>
      </trkpt>
      <trkpt lat="48.33754" lon="2.77927">
        <ele>41.5</ele>
        <time>2019-06-29T19:02:58Z</time>
      </trkpt>
      <trkpt lat="48.33599" lon="2.77948">
        <ele>41.1</ele>
        <time>2019-06-29T19:03:53Z</time>
      </trkpt>
      <trkpt lat="48.33435" lon="2.7814">
        <ele>47</ele>
        <time>2019-06-29T19:05:08Z</time>
      </trkpt>
      <trkpt lat="48.33717" lon="2.78884">
        <ele>46.1</ele>
        <time>2019-06-29T15:08:36Z</time>
      </trkpt>
      <trkpt lat="48.34161" lon="2.79194">
        <ele>48.4</ele>
        <time>2019-06-29T19:06:44Z</time>
      </trkpt>
      <trkpt lat="48.34479" lon="2.79644">
        <ele>42.8</ele>
        <time>2019-06-29T15:57:03Z</time>
      </trkpt>
      <trkpt lat="48.34811" lon="2.80242">
        <ele>47.1</ele>
        <time>2019-06-29T19:08:03Z</time>
      </trkpt>
      <trkpt lat="48.35231" lon="2.81304">
        <ele>50</ele>
        <time>2019-06-29T19:08:11Z</time>
      </trkpt>
      <trkpt lat="48.35741" lon="2.82127">
        <ele>42.9</ele>
        <time>2019-06-29T19:09:33Z</time>
      </trkpt>
      <trkpt lat="48.36232" lon="2.82535">
        <ele>47.4</ele>
        <time>2019-06-29T19:10:10Z</time>
      </trkpt>
      <trkpt lat="48.36536" lon="2.82732">
        <ele>51.4</ele>
        <time>2019-06-29T19:11:00Z</time>
      </trkpt>
      <trkpt lat="48.36718" lon="2.82683">
        <ele>47.5</ele>
        <time>2019-06-29T19:11:49Z</time>
      </trkpt>
      <trkpt lat="48.37109" lon="2.82523">
        <ele>51.7</ele>
        <time>2019-06-29T19:13:07Z</time>
      </trkpt>
      <trkpt lat="48.37235" lon="2.82094">
        <ele>49</ele>
        <time>2019-06-29T19:14:14Z</time>
      </trkpt>
      <trkpt lat="48.37249" lon="2.82066">
        <ele>48.1</ele>
        <time>2019-06-29T19:14:26Z</time>
      </trkpt>
      <trkpt lat="48.37266" lon="2.81877">
        <ele>48.8</ele>
        <time>2019-06-29T18:44:04Z</time>
      </trkpt>
      <trkpt lat="48.37284" lon="2.81895">
        <ele>45</ele>
        <time>2019-06-29T19:14:41Z</time>
      </trkpt>
      <trkpt lat="48.37318" lon="2.81912">
        <ele>36.6</ele>
        <time>2019-07-02T12:21:30Z</time>
      </trkpt>
      <trkpt lat="48.37414" lon="2.8189">
        <ele>44.1</ele>
        <time>2019-06-29T17:04:27Z</time>
      </trkpt>
      <trkpt lat="48.37501" lon="2.81867">
        <ele>43.1</ele>
        <time>2025-09-23T12:37:24Z</time>
      </trkpt>
      <trkpt lat="48.37604" lon="2.81867">
        <ele>45.1</ele>
        <time>2019-06-17T18:21:50Z</time>
      </trkpt>
      <trkpt lat="48.37669" lon="2.81852">
        <ele>39.3</ele>
        <time>2019-06-29T19:20:04Z</time>
      </trkpt>
      <trkpt lat="48.37798" lon="2.81752">
        <ele>36.7</ele>
        <time>2019-06-30T09:59:03Z</time>
      </trkpt>
      <trkpt lat="48.37846" lon="2.81661">
        <ele>46.5</ele>
        <time>2019-06-29T19:14:32Z</time>
      </trkpt>
      <trkpt lat="48.37879" lon="2.81604">
        <ele>46.5</ele>
        <time>2019-06-29T19:20:07Z</time>
      </trkpt>
      <trkpt lat="48.37901" lon="2.81543">
        <ele>44.3</ele>
        <time>2019-06-29T17:30:18Z</time>
      </trkpt>
      <trkpt lat="48.37925" lon="2.81484">
        <ele>41.4</ele>
        <time>2019-06-29T19:22:34Z</time>
      </trkpt>
      <trkpt lat="48.37965" lon="2.81382">
        <ele>38.9</ele>
        <time>2019-06-29T19:23:35Z</time>
      </trkpt>
      <trkpt lat="48.38017" lon="2.81257">
        <ele>39</ele>
        <time>2019-06-29T19:24:28Z</time>
      </trkpt>
      <trkpt lat="48.38041" lon="2.81178">
        <ele>40.1</ele>
        <time>2019-06-29T19:26:03Z</time>
      </trkpt>
      <trkpt lat="48.38114" lon="2.81029">
        <ele>39.3</ele>
        <time>2019-06-29T19:28:06Z</time>
      </trkpt>
      <trkpt lat="48.38262" lon="2.80791">
        <ele>37</ele>
        <time>2019-06-29T19:30:29Z</time>
      </trkpt>
      <trkpt lat="48.38327" lon="2.8071">
        <ele>36.4</ele>
        <time>2019-06-29T19:31:33Z</time>
      </trkpt>
      <trkpt lat="48.38364" lon="2.80655">
        <ele>36.2</ele>
        <time>2019-06-29T19:32:47Z</time>
      </trkpt>
      <trkpt lat="48.38383" lon="2.80625">
        <ele>36.3</ele>
        <time>2019-06-29T19:33:31Z</time>
      </trkpt>
      <trkpt lat="48.38397" lon="2.80605">
        <ele>36.2</ele>
        <time>2019-06-29T19:34:31Z</time>
      </trkpt>
      <trkpt lat="48.38409" lon="2.80581">
        <ele>36.2</ele>
        <time>2019-06-29T19:36:17Z</time>
      </trkpt>
      <trkpt lat="48.38386" lon="2.80538">
        <ele>36.2</ele>
        <time>2019-06-29T19:37:46Z</time>
      </trkpt>
      <trkpt lat="48.38401" lon="2.80509">
        <ele>34.2</ele>
        <time>2019-06-29T19:39:21Z</time>
      </trkpt>
      <trkpt lat="48.38408" lon="2.80506">
        <ele>34</ele>
        <time>2019-06-29T19:39:54Z</time>
      </trkpt>
      <trkpt lat="48.38417" lon="2.8051">
        <ele>34</ele>
        <time>2019-06-29T19:42:15Z</time>
      </trkpt>
      <trkpt lat="48.3845" lon="2.80538">
        <ele>34.9</ele>
        <time>2019-06-29T19:43:30Z</time>
      </trkpt>
      <trkpt lat="48.38489" lon="2.80469">
        <ele>36.5</ele>
        <time>2019-08-01T10:51:02Z</time>
      </trkpt>
      <trkpt lat="48.38521" lon="2.80369">
        <ele>37.5</ele>
        <time>2019-06-29T16:28:07Z</time>
      </trkpt>
      <trkpt lat="48.38568" lon="2.80275">
        <ele>36.6</ele>
        <time>2019-05-05T05:58:37Z</time>
      </trkpt>
      <trkpt lat="48.38632" lon="2.80218">
        <ele>34.6</ele>
        <time>2019-06-29T19:44:40Z</time>
      </trkpt>
      <trkpt lat="48.38659" lon="2.80302">
        <ele>38.1</ele>
        <time>2019-06-29T17:09:08Z</time>
      </trkpt>
      <trkpt lat="48.38932" lon="2.80773">
        <ele>39</ele>
        <time>2019-05-09T06:57:06Z</time>
      </trkpt>
      <trkpt lat="48.39053" lon="2.8065">
        <ele>47.4</ele>
        <time>2019-06-29T19:45:12Z</time>
      </trkpt>
      <trkpt lat="48.38953" lon="2.80522">
        <ele>34.6</ele>
        <time>2019-06-29T19:47:17Z</time>
      </trkpt>
      <trkpt lat="48.38846" lon="2.80204">
        <ele>37.8</ele>
        <time>2019-06-29T19:48:22Z</time>
      </trkpt>
      <trkpt lat="48.38867" lon="2.79742">
        <ele>37.2</ele>
        <time>2019-06-29T19:49:27Z</time>
      </trkpt>
      <trkpt lat="48.38871" lon="2.79204">
        <ele>40.9</ele>
        <time>2019-06-29T19:52:05Z</time>
      </trkpt>
      <trkpt lat="48.38992" lon="2.79048">
        <ele>36</ele>
        <time>2019-06-29T19:52:47Z</time>
      </trkpt>
      <trkpt lat="48.39178" lon="2.79037">
        <ele>42</ele>
        <time>2019-06-29T19:54:03Z</time>
      </trkpt>
      <trkpt lat="48.39213" lon="2.79193">
        <ele>38.2</ele>
        <time>2019-06-29T19:55:28Z</time>
      </trkpt>
      <trkpt lat="48.39324" lon="2.79043">
        <ele>29.2</ele>
        <time>2019-06-29T19:57:46Z</time>
      </trkpt>
      <trkpt lat="48.39588" lon="2.79091">
        <ele>33.4</ele>
        <time>2019-06-29T19:58:28Z</time>
      </trkpt>
      <trkpt lat="48.39802" lon="2.79172">
        <ele>47.5</ele>
        <time>2019-06-29T19:59:39Z</time>
      </trkpt>
      <trkpt lat="48.40008" lon="2.79349">
        <ele>41.2</ele>
        <time>2019-06-29T20:00:48Z</time>
      </trkpt>
      <trkpt lat="48.40074" lon="2.79428">
        <ele>41.1</ele>
        <time>2019-06-29T20:01:36Z</time>
      </trkpt>
      <trkpt lat="48.40388" lon="2.79669">
        <ele>45.7</ele>
        <time>2019-06-29T20:02:12Z</time>
      </trkpt>
      <trkpt lat="48.40582" lon="2.7976">
        <ele>37.1</ele>
        <time>2019-06-29T20:03:07Z</time>
      </trkpt>
      <trkpt lat="48.40579" lon="2.79855">
        <ele>40.1</ele>
        <time>2019-06-29T20:04:32Z</time>
      </trkpt>
      <trkpt lat="48.40561" lon="2.79928">
        <ele>38.4</ele>
        <time>2019-06-29T20:05:20Z</time>
      </trkpt>
      <trkpt lat="48.40573" lon="2.79979">
        <ele>44.7</ele>
        <time>2019-06-29T20:05:56Z</time>
      </trkpt>
      <trkpt lat="48.40572" lon="2.79997">
        <ele>48.1</ele>
        <time>2019-06-29T20:06:30Z</time>
      </trkpt>
      <trkpt lat="48.40555" lon="2.80009">
        <ele>45.6</ele>
        <time>2019-06-29T20:08:44Z</time>
      </trkpt>
      <trkpt lat="48.40543" lon="2.80035">
        <ele>46.3</ele>
        <time>2019-06-29T20:09:35Z</time>
      </trkpt>
      <trkpt lat="48.40569" lon="2.80067">
        <ele>55.8</ele>
        <time>2019-06-29T20:10:25Z</time>
      </trkpt>
      <trkpt lat="48.40605" lon="2.80078">
        <ele>59.8</ele>
        <time>2019-06-29T20:11:15Z</time>
      </trkpt>
      <trkpt lat="48.40614" lon="2.801">
        <ele>63.2</ele>
        <time>2019-06-29T20:12:16Z</time>
      </trkpt>
      <trkpt lat="48.40613" lon="2.80121">
        <ele>67.4</ele>
        <time>2019-06-29T20:13:12Z</time>
      </trkpt>
      <trkpt lat="48.40884" lon="2.79884">
        <ele>70.2</ele>
        <time>2019-06-29T20:14:11Z</time>
      </trkpt>
      <trkpt lat="48.41047" lon="2.79894">
        <ele>89.9</ele>
        <time>2019-06-29T20:15:26Z</time>
      </trkpt>
      <trkpt lat="48.41198" lon="2.79984">
        <ele>97</ele>
        <time>2019-06-29T20:16:07Z</time>
      </trkpt>
      <trkpt lat="48.41487" lon="2.79577">
        <ele>116.3</ele>
        <time>2019-06-29T20:16:44Z</time>
      </trkpt>
      <trkpt lat="48.41591" lon="2.79568">
        <ele>124.1</ele>
        <time>2019-06-29T20:19:04Z</time>
      </trkpt>
      <trkpt lat="48.41631" lon="2.79289">
        <ele>120.5</ele>
        <time>2019-06-29T20:19:58Z</time>
      </trkpt>
      <trkpt lat="48.41678" lon="2.78977">
        <ele>121.6</ele>
        <time>2019-06-29T20:21:21Z</time>
      </trkpt>
      <trkpt lat="48.41758" lon="2.78469">
        <ele>136.5</ele>
        <time>2019-06-29T20:22:09Z</time>
      </trkpt>
      <trkpt lat="48.41816" lon="2.78339">
        <ele>132.6</ele>
        <time>2019-06-29T20:23:44Z</time>
      </trkpt>
      <trkpt lat="48.41757" lon="2.78085">
        <ele>133.9</ele>
        <time>2019-06-29T20:25:59Z</time>
      </trkpt>
      <trkpt lat="48.41757" lon="2.77826">
        <ele>138.6</ele>
        <time>2019-06-29T20:32:00Z</time>
      </trkpt>
      <trkpt lat="48.41828" lon="2.77681">
        <ele>134.2</ele>
        <time>2019-06-29T20:36:14Z</time>
      </trkpt>
      <trkpt lat="48.41875" lon="2.77565">
        <ele>135.7</ele>
        <time>2019-06-29T20:40:31Z</time>
      </trkpt>
      <trkpt lat="48.41796" lon="2.77396">
        <ele>149.7</ele>
        <time>2019-06-29T20:43:42Z</time>
      </trkpt>
      <trkpt lat="48.4176" lon="2.77081">
        <ele>146</ele>
        <time>2019-06-29T20:48:46Z</time>
      </trkpt>
      <trkpt lat="48.41767" lon="2.76902">
        <ele>148.7</ele>
      </trkpt>
      <trkpt lat="48.41854" lon="2.7694">
        <ele>144.6</ele>
      </trkpt>
      <trkpt lat="48.41911" lon="2.76842">
        <ele>146.8</ele>
      </trkpt>
      <trkpt lat="48.42" lon="2.76358">
        <ele>124.3</ele>
      </trkpt>
      <trkpt lat="48.42027" lon="2.7617">
        <ele>115.2</ele>
      </trkpt>
      <trkpt lat="48.41919" lon="2.76078">
        <ele>111.5</ele>
      </trkpt>
      <trkpt lat="48.41793" lon="2.76067">
        <ele>106</ele>
      </trkpt>
      <trkpt lat="48.41649" lon="2.76137">
        <ele>94.7</ele>
      </trkpt>
      <trkpt lat="48.41605" lon="2.75937">
        <ele>79.5</ele>
      </trkpt>
      <trkpt lat="48.41469" lon="2.75855">
        <ele>68.4</ele>
      </trkpt>
      <trkpt lat="48.41325" lon="2.7604">
        <ele>42.7</ele>
      </trkpt>
      <trkpt lat="48.41224" lon="2.76007">
        <ele>45.2</ele>
      </trkpt>
      <trkpt lat="48.41166" lon="2.75899">
        <ele>40.5</ele>
      </trkpt>
      <trkpt lat="48.41217" lon="2.75378">
        <ele>40.7</ele>
      </trkpt>
      <trkpt lat="48.41249" lon="2.75183">
        <ele>39.9</ele>
      </trkpt>
      <trkpt lat="48.41423" lon="2.75012">
        <ele>32.9</ele>
      </trkpt>
      <trkpt lat="48.41519" lon="2.74901">
        <ele>20</ele>
      </trkpt>
      <trkpt lat="48.41746" lon="2.74798">
        <ele>3.1</ele>
      </trkpt>
      <trkpt lat="48.4208" lon="2.74755">
        <ele>7.8</ele>
      </trkpt>
      <trkpt lat="48.42982" lon="2.74669">
        <ele>38.7</ele>
      </trkpt>
      <trkpt lat="48.43617" lon="2.7469">
        <ele>40.8</ele>
      </trkpt>
      <trkpt lat="48.44217" lon="2.75032">
        <ele>59.9</ele>
      </trkpt>
      <trkpt lat="48.44608" lon="2.75442">
        <ele>51.7</ele>
      </trkpt>
      <trkpt lat="48.45124" lon="2.76283">
        <ele>48.2</ele>
      </trkpt>
    </trkseg>
  </trk>
</gpx>